#datetime,building,power
2023-05-05T00:01:00,pth,4.80
2023-05-05T00:03:00,pth,4.80
2023-05-05T00:04:00,pth,1.20
2023-05-05T00:05:00,pth,1.20
2023-05-05T00:07:00,pth,3.60
2023-05-05T00:08:00,pth,1.20
2023-05-05T00:09:00,pth,1.20
2023-05-05T00:11:00,pth,2.40
2023-05-05T00:12:00,pth,1.20
2023-05-05T00:13:00,pth,1.20
2023-05-05T00:15:00,pth,2.40
2023-05-05T00:17:00,pth,2.40
2023-05-05T00:18:00,pth,2.40
2023-05-05T00:20:00,pth,2.40
2023-05-05T00:21:00,pth,1.20
2023-05-05T00:23:00,pth,2.40
2023-05-05T00:25:00,pth,2.40
2023-05-05T00:26:00,pth,2.40
2023-05-05T00:28:00,pth,4.80
2023-05-05T00:30:00,pth,3.60
2023-05-05T00:32:00,pth,4.80
2023-05-05T00:34:00,pth,3.60
2023-05-05T00:36:00,pth,2.40
2023-05-05T00:38:00,pth,2.40
2023-05-05T00:40:00,pth,2.40
2023-05-05T00:42:00,pth,2.40
2023-05-05T00:43:00,pth,1.20
2023-05-05T00:45:00,pth,2.40
2023-05-05T00:47:00,pth,2.40
2023-05-05T00:48:00,pth,1.20
2023-05-05T00:50:00,pth,2.40
2023-05-05T00:52:00,pth,2.40
2023-05-05T00:53:00,pth,1.20
2023-05-05T00:54:00,pth,1.20
2023-05-05T00:56:00,pth,4.80
2023-05-05T00:57:00,pth,2.40
2023-05-05T00:59:00,pth,6.00
2023-05-05T01:01:00,pth,3.60
2023-05-05T01:02:00,pth,2.40
2023-05-05T01:04:00,pth,3.60
2023-05-05T01:06:00,pth,2.40
2023-05-05T01:08:00,pth,6.00
2023-05-05T01:10:00,pth,7.20
2023-05-05T01:12:00,pth,7.20
2023-05-05T01:14:00,pth,6.00
2023-05-05T01:16:00,pth,7.20
2023-05-05T01:17:00,pth,2.40
2023-05-05T01:19:00,pth,4.80
2023-05-05T01:20:00,pth,2.40
2023-05-05T01:22:00,pth,6.00
2023-05-05T01:23:00,pth,1.20
2023-05-05T01:25:00,pth,3.60
2023-05-05T01:26:00,pth,2.40
2023-05-05T01:28:00,pth,3.60
2023-05-05T01:29:00,pth,2.40
2023-05-05T01:31:00,pth,4.80
2023-05-05T01:33:00,pth,4.80
2023-05-05T01:34:00,pth,1.20
2023-05-05T01:36:00,pth,2.40
2023-05-05T01:37:00,pth,1.20
2023-05-05T01:39:00,pth,3.60
2023-05-05T01:41:00,pth,2.40
2023-05-05T01:43:00,pth,2.40
2023-05-05T01:45:00,pth,1.20
2023-05-05T01:47:00,pth,3.60
2023-05-05T01:49:00,pth,2.40
2023-05-05T01:51:00,pth,2.40
2023-05-05T01:53:00,pth,2.40
2023-05-05T01:55:00,pth,4.80
2023-05-05T01:56:00,pth,2.40
2023-05-05T01:58:00,pth,3.60
2023-05-05T01:59:00,pth,2.40
2023-05-05T02:00:00,pth,2.40
2023-05-05T02:02:00,pth,4.80
2023-05-05T02:04:00,pth,1.20
2023-05-05T02:06:00,pth,2.40
2023-05-05T02:07:00,pth,1.20
2023-05-05T02:09:00,pth,2.40
2023-05-05T02:10:00,pth,1.20
2023-05-05T02:12:00,pth,2.40
2023-05-05T02:13:00,pth,2.40
2023-05-05T02:14:00,pth,1.20
2023-05-05T02:16:00,pth,2.40
2023-05-05T02:18:00,pth,2.40
2023-05-05T02:20:00,pth,2.40
2023-05-05T02:22:00,pth,2.40
2023-05-05T02:23:00,pth,2.40
2023-05-05T02:25:00,pth,3.60
2023-05-05T02:26:00,pth,2.40
2023-05-05T02:28:00,pth,3.60
2023-05-05T02:30:00,pth,3.60
2023-05-05T02:31:00,pth,1.20
2023-05-05T02:33:00,pth,2.40
2023-05-05T02:35:00,pth,2.40
2023-05-05T02:36:00,pth,1.20
2023-05-05T02:37:00,pth,1.20
2023-05-05T02:39:00,pth,2.40
2023-05-05T02:40:00,pth,1.20
2023-05-05T02:42:00,pth,1.20
2023-05-05T02:44:00,pth,2.40
2023-05-05T02:45:00,pth,1.20
2023-05-05T02:46:00,pth,1.20
2023-05-05T02:48:00,pth,2.40
2023-05-05T02:50:00,pth,3.60
2023-05-05T02:51:00,pth,2.40
2023-05-05T02:52:00,pth,1.20
2023-05-05T02:53:00,pth,2.40
2023-05-05T02:55:00,pth,4.80
2023-05-05T02:57:00,pth,3.60
2023-05-05T02:59:00,pth,2.40
2023-05-05T03:00:00,pth,1.20
2023-05-05T03:02:00,pth,2.40
2023-05-05T03:04:00,pth,2.40
2023-05-05T03:06:00,pth,2.40
2023-05-05T03:08:00,pth,2.40
2023-05-05T03:10:00,pth,1.20
2023-05-05T03:11:00,pth,1.20
2023-05-05T03:13:00,pth,3.60
2023-05-05T03:15:00,pth,1.20
2023-05-05T03:17:00,pth,4.80
2023-05-05T03:18:00,pth,1.20
2023-05-05T03:20:00,pth,4.80
2023-05-05T03:21:00,pth,1.20
2023-05-05T03:23:00,pth,4.80
2023-05-05T03:25:00,pth,2.40
2023-05-05T03:26:00,pth,1.20
2023-05-05T03:28:00,pth,2.40
2023-05-05T03:31:00,pth,2.40
2023-05-05T03:33:00,pth,1.20
2023-05-05T03:35:00,pth,2.40
2023-05-05T03:37:00,pth,2.40
2023-05-05T03:38:00,pth,1.20
2023-05-05T03:40:00,pth,1.20
2023-05-05T03:41:00,pth,1.20
2023-05-05T03:43:00,pth,2.40
2023-05-05T03:44:00,pth,1.20
2023-05-05T03:45:00,pth,2.40
2023-05-05T03:46:00,pth,2.40
2023-05-05T03:47:00,pth,1.20
2023-05-05T03:49:00,pth,4.80
2023-05-05T03:50:00,pth,1.20
2023-05-05T03:52:00,pth,4.80
2023-05-05T03:54:00,pth,2.40
2023-05-05T03:55:00,pth,1.20
2023-05-05T03:57:00,pth,1.20
2023-05-05T03:59:00,pth,2.40
2023-05-05T04:01:00,pth,2.40
2023-05-05T04:02:00,pth,1.20
2023-05-05T04:04:00,pth,2.40
2023-05-05T04:06:00,pth,1.20
2023-05-05T04:08:00,pth,2.40
2023-05-05T04:10:00,pth,2.40
2023-05-05T04:12:00,pth,4.80
2023-05-05T04:14:00,pth,3.60
2023-05-05T04:16:00,pth,4.80
2023-05-05T04:17:00,pth,1.20
2023-05-05T04:18:00,pth,2.40
2023-05-05T04:20:00,pth,2.40
2023-05-05T04:21:00,pth,1.20
2023-05-05T04:23:00,pth,2.40
2023-05-05T04:24:00,pth,1.20
2023-05-05T04:26:00,pth,2.40
2023-05-05T04:28:00,pth,1.20
2023-05-05T04:30:00,pth,2.40
2023-05-05T04:32:00,pth,2.40
2023-05-05T04:33:00,pth,1.20
2023-05-05T04:35:00,pth,2.40
2023-05-05T04:37:00,pth,3.60
2023-05-05T04:38:00,pth,2.40
2023-05-05T04:40:00,pth,3.60
2023-05-05T04:42:00,pth,3.60
2023-05-05T04:44:00,pth,3.60
2023-05-05T04:45:00,pth,2.40
2023-05-05T04:47:00,pth,2.40
2023-05-05T04:48:00,pth,1.20
2023-05-05T04:50:00,pth,1.20
2023-05-05T04:52:00,pth,2.40
2023-05-05T04:54:00,pth,2.40
2023-05-05T04:56:00,pth,1.20
2023-05-05T04:58:00,pth,2.40
2023-05-05T05:00:00,pth,1.20
2023-05-05T05:02:00,pth,2.40
2023-05-05T05:04:00,pth,2.40
2023-05-05T05:06:00,pth,3.60
2023-05-05T05:07:00,pth,2.40
2023-05-05T05:09:00,pth,3.60
2023-05-05T05:11:00,pth,3.60
2023-05-05T05:13:00,pth,3.60
2023-05-05T05:15:00,pth,2.40
2023-05-05T05:17:00,pth,1.20
2023-05-05T05:19:00,pth,2.40
2023-05-05T05:21:00,pth,1.20
2023-05-05T05:23:00,pth,2.40
2023-05-05T05:24:00,pth,1.20
2023-05-05T05:25:00,pth,1.20
2023-05-05T05:26:00,pth,1.20
2023-05-05T05:28:00,pth,1.20
2023-05-05T05:30:00,pth,2.40
2023-05-05T05:32:00,pth,3.60
2023-05-05T05:33:00,pth,2.40
2023-05-05T05:35:00,pth,3.60
2023-05-05T05:37:00,pth,3.60
2023-05-05T05:38:00,pth,2.40
2023-05-05T05:40:00,pth,2.40
2023-05-05T05:42:00,pth,2.40
2023-05-05T05:43:00,pth,1.20
2023-05-05T05:45:00,pth,2.40
2023-05-05T05:47:00,pth,2.40
2023-05-05T05:48:00,pth,1.20
2023-05-05T05:50:00,pth,2.40
2023-05-05T05:51:00,pth,1.20
2023-05-05T05:53:00,pth,2.40
2023-05-05T05:55:00,pth,1.20
2023-05-05T05:56:00,pth,1.20
2023-05-05T05:58:00,pth,3.60
2023-05-05T06:00:00,pth,3.60
2023-05-05T06:01:00,pth,2.40
2023-05-05T06:02:00,pth,2.40
2023-05-05T06:04:00,pth,3.60
2023-05-05T06:05:00,pth,1.20
2023-05-05T06:06:00,pth,1.20
2023-05-05T06:08:00,pth,1.20
2023-05-05T06:09:00,pth,1.20
2023-05-05T06:10:00,pth,1.20
2023-05-05T06:12:00,pth,1.20
2023-05-05T06:13:00,pth,1.20
2023-05-05T06:14:00,pth,1.20
2023-05-05T06:16:00,pth,2.40
2023-05-05T06:18:00,pth,2.40
2023-05-05T06:20:00,pth,1.20
2023-05-05T06:22:00,pth,3.60
2023-05-05T06:24:00,pth,3.60
2023-05-05T06:25:00,pth,2.40
2023-05-05T06:27:00,pth,3.60
2023-05-05T06:29:00,pth,4.80
2023-05-05T06:31:00,pth,3.60
2023-05-05T06:33:00,pth,1.20
2023-05-05T06:35:00,pth,2.40
2023-05-05T06:37:00,pth,2.40
2023-05-05T06:40:00,pth,2.40
2023-05-05T06:42:00,pth,1.20
2023-05-05T06:44:00,pth,2.40
2023-05-05T06:47:00,pth,2.40
2023-05-05T06:48:00,pth,1.20
2023-05-05T06:50:00,pth,3.60
2023-05-05T06:51:00,pth,1.20
2023-05-05T06:53:00,pth,3.60
2023-05-05T06:54:00,pth,1.20
2023-05-05T06:55:00,pth,1.20
2023-05-05T06:56:00,pth,2.40
2023-05-05T06:58:00,pth,1.20
2023-05-05T07:00:00,pth,2.40
2023-05-05T07:02:00,pth,1.20
2023-05-05T07:05:00,pth,2.40
2023-05-05T07:08:00,pth,2.40
2023-05-05T07:11:00,pth,2.40
2023-05-05T07:12:00,pth,1.20
2023-05-05T07:14:00,pth,2.40
2023-05-05T07:16:00,pth,3.60
2023-05-05T07:17:00,pth,1.20
2023-05-05T07:19:00,pth,3.60
2023-05-05T07:21:00,pth,3.60
2023-05-05T07:22:00,pth,1.20
2023-05-05T07:24:00,pth,2.40
2023-05-05T07:26:00,pth,1.20
2023-05-05T07:28:00,pth,2.40
2023-05-05T07:30:00,pth,1.20
2023-05-05T07:31:00,pth,1.20
2023-05-05T07:33:00,pth,2.40
2023-05-05T07:35:00,pth,2.40
2023-05-05T07:37:00,pth,2.40
2023-05-05T07:40:00,pth,4.80
2023-05-05T07:42:00,pth,4.80
2023-05-05T07:43:00,pth,3.60
2023-05-05T07:45:00,pth,3.60
2023-05-05T07:47:00,pth,3.60
2023-05-05T07:48:00,pth,2.40
2023-05-05T07:50:00,pth,2.40
2023-05-05T07:52:00,pth,2.40
2023-05-05T07:54:00,pth,3.60
2023-05-05T07:56:00,pth,2.40
2023-05-05T07:57:00,pth,1.20
2023-05-05T07:58:00,pth,2.40
2023-05-05T08:00:00,pth,2.40
2023-05-05T08:02:00,pth,2.40
2023-05-05T08:04:00,pth,2.40
2023-05-05T08:05:00,pth,2.40
2023-05-05T08:07:00,pth,3.60
2023-05-05T08:08:00,pth,3.60
2023-05-05T08:09:00,pth,2.40
2023-05-05T08:10:00,pth,2.40
2023-05-05T08:12:00,pth,4.80
2023-05-05T08:13:00,pth,2.40
2023-05-05T08:15:00,pth,2.40
2023-05-05T08:17:00,pth,2.40
2023-05-05T08:18:00,pth,1.20
2023-05-05T08:21:00,pth,2.40
2023-05-05T08:23:00,pth,4.80
2023-05-05T08:25:00,pth,3.60
2023-05-05T08:26:00,pth,2.40
2023-05-05T08:28:00,pth,3.60
2023-05-05T08:30:00,pth,2.40
2023-05-05T08:32:00,pth,3.60
2023-05-05T08:33:00,pth,1.20
2023-05-05T08:35:00,pth,3.60
2023-05-05T08:37:00,pth,3.60
2023-05-05T08:40:00,pth,1.20
2023-05-05T08:42:00,pth,1.20
2023-05-05T08:43:00,pth,1.20
2023-05-05T08:44:00,pth,1.20
2023-05-05T08:46:00,pth,1.20
2023-05-05T08:47:00,pth,1.20
2023-05-05T08:49:00,pth,2.40
2023-05-05T08:51:00,pth,1.20
2023-05-05T08:53:00,pth,1.20
2023-05-05T08:54:00,pth,1.20
2023-05-05T08:56:00,pth,3.60
2023-05-05T08:58:00,pth,3.60
2023-05-05T09:00:00,pth,3.60
2023-05-05T09:01:00,pth,2.40
2023-05-05T09:03:00,pth,2.40
2023-05-05T09:05:00,pth,1.20
2023-05-05T09:06:00,pth,1.20
2023-05-05T09:08:00,pth,2.40
2023-05-05T09:10:00,pth,1.20
2023-05-05T09:12:00,pth,2.40
2023-05-05T09:14:00,pth,1.20
2023-05-05T09:15:00,pth,1.20
2023-05-05T09:17:00,pth,1.20
2023-05-05T09:18:00,pth,1.20
2023-05-05T09:19:00,pth,1.20
2023-05-05T09:21:00,pth,2.40
2023-05-05T09:23:00,pth,3.60
2023-05-05T09:24:00,pth,2.40
2023-05-05T09:25:00,pth,1.20
2023-05-05T09:27:00,pth,3.60
2023-05-05T09:28:00,pth,2.40
2023-05-05T09:30:00,pth,1.20
2023-05-05T09:32:00,pth,2.40
2023-05-05T09:34:00,pth,1.20
2023-05-05T09:35:00,pth,1.20
2023-05-05T09:38:00,pth,1.20
2023-05-05T09:40:00,pth,2.40
2023-05-05T09:42:00,pth,1.20
2023-05-05T09:44:00,pth,1.20
2023-05-05T09:46:00,pth,1.20
2023-05-05T09:47:00,pth,1.20
2023-05-05T09:49:00,pth,1.20
2023-05-05T09:51:00,pth,2.40
2023-05-05T09:53:00,pth,3.60
2023-05-05T09:55:00,pth,3.60
2023-05-05T09:56:00,pth,1.20
2023-05-05T09:58:00,pth,3.60
2023-05-05T09:59:00,pth,1.20
2023-05-05T10:00:00,pth,1.20
2023-05-05T10:01:00,pth,1.20
2023-05-05T10:03:00,pth,1.20
2023-05-05T10:04:00,pth,1.20
2023-05-05T10:06:00,pth,1.20
2023-05-05T10:08:00,pth,1.20
2023-05-05T10:10:00,pth,1.20
2023-05-05T10:11:00,pth,1.20
2023-05-05T10:13:00,pth,1.20
2023-05-05T10:15:00,pth,1.20
2023-05-05T10:16:00,pth,1.20
2023-05-05T10:18:00,pth,1.20
2023-05-05T10:19:00,pth,1.20
2023-05-05T10:21:00,pth,3.60
2023-05-05T10:23:00,pth,3.60
2023-05-05T10:25:00,pth,3.60
2023-05-05T10:27:00,pth,2.40
2023-05-05T10:28:00,pth,1.20
2023-05-05T10:30:00,pth,1.20
2023-05-05T10:32:00,pth,2.40
2023-05-05T10:34:00,pth,1.20
2023-05-05T10:37:00,pth,1.20
2023-05-05T10:38:00,pth,1.20
2023-05-05T10:40:00,pth,1.20
2023-05-05T10:41:00,pth,1.20
2023-05-05T10:43:00,pth,1.20
2023-05-05T10:45:00,pth,1.20
2023-05-05T10:47:00,pth,1.20
2023-05-05T10:49:00,pth,2.40
2023-05-05T10:51:00,pth,1.20
2023-05-05T10:53:00,pth,2.40
2023-05-05T10:54:00,pth,2.40
2023-05-05T10:55:00,pth,1.20
2023-05-05T10:57:00,pth,3.60
2023-05-05T10:59:00,pth,4.80
2023-05-05T11:01:00,pth,3.60
2023-05-05T11:03:00,pth,2.40
2023-05-05T11:04:00,pth,1.20
2023-05-05T11:06:00,pth,2.40
2023-05-05T11:08:00,pth,2.40
2023-05-05T11:09:00,pth,1.20
2023-05-05T11:11:00,pth,1.20
2023-05-05T11:12:00,pth,1.20
2023-05-05T11:14:00,pth,2.40
2023-05-05T11:15:00,pth,1.20
2023-05-05T11:16:00,pth,1.20
2023-05-05T11:18:00,pth,2.40
2023-05-05T11:20:00,pth,1.20
2023-05-05T11:21:00,pth,1.20
2023-05-05T11:23:00,pth,1.20
2023-05-05T11:24:00,pth,1.20
2023-05-05T11:27:00,pth,2.40
2023-05-05T11:29:00,pth,2.40
2023-05-05T11:31:00,pth,3.60
2023-05-05T11:33:00,pth,2.40
2023-05-05T11:35:00,pth,3.60
2023-05-05T11:37:00,pth,2.40
2023-05-05T11:40:00,pth,2.40
2023-05-05T11:42:00,pth,2.40
2023-05-05T11:44:00,pth,1.20
2023-05-05T11:46:00,pth,2.40
2023-05-05T11:48:00,pth,1.20
2023-05-05T11:50:00,pth,2.40
2023-05-05T11:52:00,pth,2.40
2023-05-05T11:53:00,pth,1.20
2023-05-05T11:55:00,pth,1.20
2023-05-05T11:56:00,pth,1.20
2023-05-05T11:58:00,pth,1.20
2023-05-05T12:00:00,pth,2.40
2023-05-05T12:03:00,pth,2.40
2023-05-05T12:04:00,pth,1.20
2023-05-05T12:06:00,pth,3.60
2023-05-05T12:07:00,pth,2.40
2023-05-05T12:09:00,pth,3.60
2023-05-05T12:10:00,pth,1.20
2023-05-05T12:11:00,pth,1.20
2023-05-05T12:13:00,pth,1.20
2023-05-05T12:15:00,pth,2.40
2023-05-05T12:17:00,pth,1.20
2023-05-05T12:18:00,pth,1.20
2023-05-05T12:20:00,pth,1.20
2023-05-05T12:21:00,pth,1.20
2023-05-05T12:23:00,pth,1.20
2023-05-05T12:25:00,pth,1.20
2023-05-05T12:26:00,pth,1.20
2023-05-05T12:28:00,pth,1.20
2023-05-05T12:29:00,pth,1.20
2023-05-05T12:30:00,pth,1.20
2023-05-05T12:32:00,pth,1.20
2023-05-05T12:34:00,pth,1.20
2023-05-05T12:36:00,pth,1.20
2023-05-05T12:38:00,pth,2.40
2023-05-05T12:40:00,pth,2.40
2023-05-05T12:41:00,pth,1.20
2023-05-05T12:42:00,pth,1.20
2023-05-05T12:44:00,pth,4.80
2023-05-05T12:45:00,pth,1.20
2023-05-05T12:47:00,pth,3.60
2023-05-05T12:49:00,pth,2.40
2023-05-05T12:50:00,pth,1.20
2023-05-05T12:52:00,pth,1.20
2023-05-05T12:54:00,pth,2.40
2023-05-05T12:55:00,pth,1.20
2023-05-05T12:57:00,pth,1.20
2023-05-05T12:58:00,pth,1.20
2023-05-05T13:00:00,pth,1.20
2023-05-05T13:01:00,pth,1.20
2023-05-05T13:03:00,pth,2.40
2023-05-05T13:05:00,pth,1.20
2023-05-05T13:07:00,pth,2.40
2023-05-05T13:08:00,pth,1.20
2023-05-05T13:10:00,pth,2.40
2023-05-05T13:12:00,pth,2.40
2023-05-05T13:13:00,pth,1.20
2023-05-05T13:15:00,pth,2.40
2023-05-05T13:18:00,pth,2.40
2023-05-05T13:20:00,pth,2.40
2023-05-05T13:22:00,pth,1.20
2023-05-05T13:23:00,pth,1.20
2023-05-05T13:25:00,pth,2.40
2023-05-05T13:26:00,pth,1.20
2023-05-05T13:28:00,pth,3.60
2023-05-05T13:30:00,pth,3.60
2023-05-05T13:31:00,pth,1.20
2023-05-05T13:33:00,pth,2.40
2023-05-05T13:34:00,pth,1.20
2023-05-05T13:36:00,pth,2.40
2023-05-05T13:38:00,pth,1.20
2023-05-05T13:40:00,pth,1.20
2023-05-05T13:42:00,pth,1.20
2023-05-05T13:43:00,pth,1.20
2023-05-05T13:45:00,pth,1.20
2023-05-05T13:46:00,pth,1.20
2023-05-05T13:48:00,pth,1.20
2023-05-05T13:49:00,pth,1.20
2023-05-05T13:51:00,pth,1.20
2023-05-05T13:53:00,pth,2.40
2023-05-05T13:56:00,pth,1.20
2023-05-05T13:58:00,pth,2.40
2023-05-05T14:00:00,pth,1.20
2023-05-05T14:01:00,pth,1.20
2023-05-05T14:03:00,pth,1.20
2023-05-05T14:05:00,pth,1.20
2023-05-05T14:07:00,pth,1.20
2023-05-05T14:09:00,pth,2.40
2023-05-05T14:10:00,pth,1.20
2023-05-05T14:12:00,pth,1.20
2023-05-05T14:14:00,pth,2.40
2023-05-05T14:15:00,pth,2.40
2023-05-05T14:17:00,pth,3.60
2023-05-05T14:18:00,pth,2.40
2023-05-05T14:20:00,pth,2.40
2023-05-05T14:22:00,pth,2.40
2023-05-05T14:24:00,pth,1.20
2023-05-05T14:25:00,pth,1.20
2023-05-05T14:27:00,pth,2.40
2023-05-05T14:30:00,pth,2.40
2023-05-05T14:32:00,pth,2.40
2023-05-05T14:35:00,pth,2.40
2023-05-05T14:36:00,pth,1.20
2023-05-05T14:38:00,pth,2.40
2023-05-05T14:40:00,pth,1.20
2023-05-05T14:42:00,pth,1.20
2023-05-05T14:44:00,pth,1.20
2023-05-05T14:45:00,pth,1.20
2023-05-05T14:47:00,pth,1.20
2023-05-05T14:48:00,pth,1.20
2023-05-05T14:50:00,pth,2.40
2023-05-05T14:52:00,pth,1.20
2023-05-05T14:53:00,pth,1.20
2023-05-05T14:56:00,pth,2.40
2023-05-05T14:58:00,pth,2.40
2023-05-05T15:00:00,pth,2.40
2023-05-05T15:02:00,pth,2.40
2023-05-05T15:04:00,pth,2.40
2023-05-05T15:06:00,pth,1.20
2023-05-05T15:08:00,pth,2.40
2023-05-05T15:10:00,pth,2.40
2023-05-05T15:11:00,pth,2.40
2023-05-05T15:13:00,pth,3.60
2023-05-05T15:14:00,pth,1.20
2023-05-05T15:15:00,pth,2.40
2023-05-05T15:17:00,pth,3.60
2023-05-05T15:19:00,pth,1.20
2023-05-05T15:20:00,pth,1.20
2023-05-05T15:22:00,pth,2.40
2023-05-05T15:25:00,pth,2.40
2023-05-05T15:27:00,pth,1.20
2023-05-05T15:29:00,pth,2.40
2023-05-05T15:30:00,pth,1.20
2023-05-05T15:32:00,pth,2.40
2023-05-05T15:33:00,pth,1.20
2023-05-05T15:36:00,pth,2.40
2023-05-05T15:38:00,pth,1.20
2023-05-05T15:40:00,pth,1.20
2023-05-05T15:42:00,pth,2.40
2023-05-05T15:44:00,pth,1.20
2023-05-05T15:45:00,pth,1.20
2023-05-05T15:47:00,pth,1.20
2023-05-05T15:48:00,pth,1.20
2023-05-05T15:51:00,pth,2.40
2023-05-05T15:54:00,pth,2.40
2023-05-05T15:57:00,pth,2.40
2023-05-05T15:59:00,pth,1.20
2023-05-05T16:00:00,pth,1.20
2023-05-05T16:02:00,pth,1.20
2023-05-05T16:04:00,pth,1.20
2023-05-05T16:05:00,pth,1.20
2023-05-05T16:06:00,pth,1.20
2023-05-05T16:08:00,pth,1.20
2023-05-05T16:10:00,pth,2.40
2023-05-05T16:12:00,pth,1.20
2023-05-05T16:13:00,pth,1.20
2023-05-05T16:15:00,pth,1.20
2023-05-05T16:16:00,pth,1.20
2023-05-05T16:17:00,pth,1.20
2023-05-05T16:19:00,pth,2.40
2023-05-05T16:20:00,pth,1.20
2023-05-05T16:22:00,pth,2.40
2023-05-05T16:24:00,pth,3.60
2023-05-05T16:26:00,pth,3.60
2023-05-05T16:27:00,pth,2.40
2023-05-05T16:28:00,pth,2.40
2023-05-05T16:30:00,pth,2.40
2023-05-05T16:31:00,pth,1.20
2023-05-05T16:33:00,pth,1.20
2023-05-05T16:34:00,pth,1.20
2023-05-05T16:35:00,pth,1.20
2023-05-05T16:36:00,pth,1.20
2023-05-05T16:38:00,pth,1.20
2023-05-05T16:40:00,pth,2.40
2023-05-05T16:41:00,pth,1.20
2023-05-05T16:44:00,pth,2.40
2023-05-05T16:46:00,pth,1.20
2023-05-05T16:48:00,pth,1.20
2023-05-05T16:49:00,pth,1.20
2023-05-05T16:51:00,pth,2.40
2023-05-05T16:53:00,pth,1.20
2023-05-05T16:55:00,pth,4.80
2023-05-05T16:56:00,pth,3.60
2023-05-05T16:57:00,pth,2.40
2023-05-05T16:59:00,pth,7.20
2023-05-05T17:00:00,pth,2.40
2023-05-05T17:02:00,pth,6.00
2023-05-05T17:04:00,pth,3.60
2023-05-05T17:05:00,pth,2.40
2023-05-05T17:06:00,pth,1.20
2023-05-05T17:08:00,pth,2.40
2023-05-05T17:10:00,pth,2.40
2023-05-05T17:12:00,pth,1.20
2023-05-05T17:14:00,pth,2.40
2023-05-05T17:15:00,pth,1.20
2023-05-05T17:17:00,pth,2.40
2023-05-05T17:19:00,pth,2.40
2023-05-05T17:20:00,pth,1.20
2023-05-05T17:22:00,pth,2.40
2023-05-05T17:23:00,pth,1.20
2023-05-05T17:24:00,pth,1.20
2023-05-05T17:26:00,pth,2.40
2023-05-05T17:27:00,pth,1.20
2023-05-05T17:28:00,pth,1.20
2023-05-05T17:30:00,pth,2.40
2023-05-05T17:32:00,pth,1.20
2023-05-05T17:34:00,pth,2.40
2023-05-05T17:35:00,pth,1.20
2023-05-05T17:37:00,pth,2.40
2023-05-05T17:39:00,pth,2.40
2023-05-05T17:40:00,pth,1.20
2023-05-05T17:42:00,pth,1.20
2023-05-05T17:43:00,pth,1.20
2023-05-05T17:45:00,pth,2.40
2023-05-05T17:47:00,pth,3.60
2023-05-05T17:49:00,pth,2.40
2023-05-05T17:51:00,pth,3.60
2023-05-05T17:52:00,pth,2.40
2023-05-05T17:54:00,pth,2.40
2023-05-05T17:55:00,pth,1.20
2023-05-05T17:56:00,pth,2.40
2023-05-05T17:58:00,pth,4.80
2023-05-05T17:59:00,pth,1.20
2023-05-05T18:01:00,pth,4.80
2023-05-05T18:03:00,pth,2.40
2023-05-05T18:04:00,pth,1.20
2023-05-05T18:06:00,pth,2.40
2023-05-05T18:07:00,pth,1.20
2023-05-05T18:09:00,pth,2.40
2023-05-05T18:10:00,pth,1.20
2023-05-05T18:12:00,pth,2.40
2023-05-05T18:14:00,pth,2.40
2023-05-05T18:15:00,pth,1.20
2023-05-05T18:17:00,pth,1.20
2023-05-05T18:19:00,pth,2.40
2023-05-05T18:20:00,pth,1.20
2023-05-05T18:22:00,pth,2.40
2023-05-05T18:24:00,pth,1.20
2023-05-05T18:25:00,pth,1.20
2023-05-05T18:27:00,pth,2.40
2023-05-05T18:29:00,pth,1.20
2023-05-05T18:30:00,pth,1.20
2023-05-05T18:32:00,pth,2.40
2023-05-05T18:34:00,pth,1.20
2023-05-05T18:36:00,pth,2.40
2023-05-05T18:38:00,pth,1.20
2023-05-05T18:40:00,pth,2.40
2023-05-05T18:42:00,pth,2.40
2023-05-05T18:45:00,pth,2.40
2023-05-05T18:46:00,pth,1.20
2023-05-05T18:48:00,pth,1.20
2023-05-05T18:49:00,pth,1.20
2023-05-05T18:50:00,pth,1.20
2023-05-05T18:52:00,pth,1.20
2023-05-05T18:54:00,pth,1.20
2023-05-05T18:56:00,pth,2.40
2023-05-05T18:58:00,pth,1.20
2023-05-05T18:59:00,pth,1.20
2023-05-05T19:01:00,pth,1.20
2023-05-05T19:02:00,pth,1.20
2023-05-05T19:03:00,pth,1.20
2023-05-05T19:05:00,pth,1.20
2023-05-05T19:06:00,pth,1.20
2023-05-05T19:08:00,pth,2.40
2023-05-05T19:09:00,pth,1.20
2023-05-05T19:11:00,pth,2.40
2023-05-05T19:12:00,pth,1.20
2023-05-05T19:15:00,pth,2.40
2023-05-05T19:17:00,pth,2.40
2023-05-05T19:18:00,pth,2.40
2023-05-05T19:19:00,pth,2.40
2023-05-05T19:21:00,pth,3.60
2023-05-05T19:23:00,pth,3.60
2023-05-05T19:24:00,pth,2.40
2023-05-05T19:26:00,pth,1.20
2023-05-05T19:28:00,pth,2.40
2023-05-05T19:29:00,pth,1.20
2023-05-05T19:31:00,pth,2.40
2023-05-05T19:33:00,pth,1.20
2023-05-05T19:35:00,pth,3.60
2023-05-05T19:36:00,pth,2.40
2023-05-05T19:37:00,pth,1.20
2023-05-05T19:39:00,pth,2.40
2023-05-05T19:41:00,pth,2.40
2023-05-05T19:42:00,pth,1.20
2023-05-05T19:45:00,pth,2.40
2023-05-05T19:46:00,pth,1.20
2023-05-05T19:48:00,pth,2.40
2023-05-05T19:50:00,pth,2.40
2023-05-05T19:51:00,pth,1.20
2023-05-05T19:52:00,pth,1.20
2023-05-05T19:54:00,pth,2.40
2023-05-05T19:56:00,pth,2.40
2023-05-05T19:57:00,pth,1.20
2023-05-05T19:59:00,pth,3.60
2023-05-05T20:00:00,pth,1.20
2023-05-05T20:01:00,pth,1.20
2023-05-05T20:03:00,pth,2.40
2023-05-05T20:05:00,pth,3.60
2023-05-05T20:06:00,pth,2.40
2023-05-05T20:08:00,pth,2.40
2023-05-05T20:09:00,pth,1.20
2023-05-05T20:11:00,pth,2.40
2023-05-05T20:12:00,pth,1.20
2023-05-05T20:14:00,pth,2.40
2023-05-05T20:15:00,pth,1.20
2023-05-05T20:17:00,pth,3.60
2023-05-05T20:19:00,pth,2.40
2023-05-05T20:20:00,pth,2.40
2023-05-05T20:22:00,pth,2.40
2023-05-05T20:24:00,pth,2.40
2023-05-05T20:26:00,pth,1.20
2023-05-05T20:27:00,pth,1.20
2023-05-05T20:29:00,pth,2.40
2023-05-05T20:31:00,pth,2.40
2023-05-05T20:33:00,pth,2.40
2023-05-05T20:34:00,pth,1.20
2023-05-05T20:36:00,pth,2.40
2023-05-05T20:38:00,pth,4.80
2023-05-05T20:40:00,pth,3.60
2023-05-05T20:41:00,pth,2.40
2023-05-05T20:43:00,pth,2.40
2023-05-05T20:44:00,pth,1.20
2023-05-05T20:46:00,pth,2.40
2023-05-05T20:48:00,pth,1.20
2023-05-05T20:50:00,pth,2.40
2023-05-05T20:52:00,pth,2.40
2023-05-05T20:53:00,pth,1.20
2023-05-05T20:55:00,pth,1.20
2023-05-05T20:57:00,pth,2.40
2023-05-05T20:59:00,pth,2.40
2023-05-05T21:01:00,pth,2.40
2023-05-05T21:03:00,pth,13.20
2023-05-05T21:05:00,pth,13.20
2023-05-05T21:06:00,pth,7.20
2023-05-05T21:08:00,pth,14.40
2023-05-05T21:10:00,pth,13.20
2023-05-05T21:11:00,pth,7.20
2023-05-05T21:13:00,pth,13.20
2023-05-05T21:14:00,pth,7.20
2023-05-05T21:16:00,pth,13.20
2023-05-05T21:18:00,pth,14.40
2023-05-05T21:20:00,pth,15.60
2023-05-05T21:22:00,pth,15.60
2023-05-05T21:23:00,pth,6.00
2023-05-05T21:25:00,pth,15.60
2023-05-05T21:27:00,pth,15.60
2023-05-05T21:28:00,pth,7.20
2023-05-05T21:30:00,pth,16.80
2023-05-05T21:31:00,pth,7.20
2023-05-05T21:32:00,pth,6.00
2023-05-05T21:34:00,pth,14.40
2023-05-05T21:36:00,pth,13.20
2023-05-05T21:38:00,pth,14.40
2023-05-05T21:40:00,pth,13.20
2023-05-05T21:42:00,pth,9.60
2023-05-05T21:43:00,pth,4.80
2023-05-05T21:45:00,pth,14.40
2023-05-05T21:47:00,pth,8.40
2023-05-05T21:49:00,pth,12.00
2023-05-05T21:51:00,pth,9.60
2023-05-05T21:52:00,pth,2.40
2023-05-05T21:53:00,pth,7.20
2023-05-05T21:55:00,pth,12.00
2023-05-05T21:56:00,pth,1.20
2023-05-05T21:58:00,pth,13.20
2023-05-05T22:00:00,pth,8.40
2023-05-05T22:02:00,pth,3.60
2023-05-05T22:03:00,pth,1.20
2023-05-05T22:05:00,pth,2.40
2023-05-05T22:07:00,pth,2.40
2023-05-05T22:09:00,pth,3.60
2023-05-05T22:11:00,pth,2.40
2023-05-05T22:13:00,pth,4.80
2023-05-05T22:15:00,pth,4.80
2023-05-05T22:17:00,pth,4.80
2023-05-05T22:19:00,pth,3.60
2023-05-05T22:20:00,pth,2.40
2023-05-05T22:22:00,pth,2.40
2023-05-05T22:23:00,pth,1.20
2023-05-05T22:25:00,pth,3.60
2023-05-05T22:27:00,pth,2.40
2023-05-05T22:29:00,pth,2.40
2023-05-05T22:30:00,pth,1.20
2023-05-05T22:32:00,pth,2.40
2023-05-05T22:33:00,pth,1.20
2023-05-05T22:35:00,pth,3.60
2023-05-05T22:36:00,pth,1.20
2023-05-05T22:38:00,pth,3.60
2023-05-05T22:40:00,pth,3.60
2023-05-05T22:42:00,pth,2.40
2023-05-05T22:44:00,pth,2.40
2023-05-05T22:45:00,pth,1.20
2023-05-05T22:46:00,pth,1.20
2023-05-05T22:48:00,pth,3.60
2023-05-05T22:50:00,pth,2.40
2023-05-05T22:52:00,pth,2.40
2023-05-05T22:53:00,pth,1.20
2023-05-05T22:55:00,pth,2.40
2023-05-05T22:57:00,pth,3.60
2023-05-05T22:59:00,pth,2.40
2023-05-05T23:01:00,pth,3.60
2023-05-05T23:02:00,pth,1.20
2023-05-05T23:04:00,pth,4.80
2023-05-05T23:05:00,pth,2.40
2023-05-05T23:07:00,pth,4.80
2023-05-05T23:09:00,pth,4.80
2023-05-05T23:11:00,pth,3.60
2023-05-05T23:12:00,pth,1.20
2023-05-05T23:14:00,pth,2.40
2023-05-05T23:15:00,pth,2.40
2023-05-05T23:16:00,pth,1.20
2023-05-05T23:18:00,pth,3.60
2023-05-05T23:20:00,pth,2.40
2023-05-05T23:22:00,pth,3.60